Airfield :
LOGIN :

Register | Disclaimer

   EN    FR    IT 

 










Legend :    VFR   Marginal VFR   IFR   Intensive IFR   Very Intensive IFR
Visi :
Ceiling :
>= 8 km
>= 3000ft
5 to 8 km
1000 to 3000 ft
1500m to 5 km
500 to 1000 ft
800 to 1500m
200 to 500 ft
< 800m
< 200 ft
Symbols :   Thunderstorms  Fog  Heavy snow  Heavy precipitations  Wind > 20 kt
SIGMETs :     Misc.  Thunderstorms  Icing  Turbulence  Mountain Waves  Volcanic Ashes







- Airport Elevation : 235 ft
- IATA code : BZG


EPBY - Bydgoszcz

CURRENT METAR :
  • 170000Z 10003KT CAVOK 07/05 Q1020

EXPIRED METARs :
  • 162330Z 10003KT CAVOK 07/05 Q1020
  • 162300Z 10005KT CAVOK 07/05 Q1020
  • 162230Z 10003KT CAVOK 07/05 Q1020
  • 162200Z 08003KT CAVOK 08/06 Q1020
  • 162130Z 10003KT CAVOK 07/06 Q1020

TAF TAF EPBY
Valid from the 17 at 00:00 until the 18 at 00:00 UTC


162330Z 1700/1724 12004KT CAVOK
PROB40 1701/1707 3000 BR
No reported NOTAMs for that airfield.



MET'MAP, your aeronautical weather chart ! - Copyright ORBIFLY December 2007 - Disclaimer

ORBIFLY MET'MAP TEAM :

Programming & Development : Alexandra Zaïnal
Concept & Development : Baudouin d'Aumeries
Co-Development & Prog : Marc-Olivier Méhu
Technical & hardware support : Manuel Goepfert

Contact : metmap@orbifly.com




SOURCES & CREDITS :

   NOAA